Location: Grand Moustoir
(47.8355°N, 3.3120°W)
Time: 15:59:35
(UTC+00:00)

Cosmos 2227 Rocket - Pass Details

Date: 20 January 2020
Orbit: 841 x 843 km, 71.0° (Epoch: 19 February)

Event Time Altitude Azimuth Distance (km) Brightness Sun altitude
Exits shadow 04:07:35 17° 135° (SE) 2,029 4.4 -37.6°
Drops below altitude 10° 04:08:45 10° 138° (SE) 2,454 4.9 -37.4°
Sets 04:11:14 0° 142° (SE) 3,385 5.6 -37.0°
